When you browse on this site, cookies collect data to enhance your experience and personalize the content and advertising you see.
Visit our Privacy Policy to learn more. By continuing to use the site, you agree to this use of cookies and data.
  • In United Kingdom
  • List of Countries
  • For 7 days
  • Water Temperature
  • Weather Map
  • Weather Widgets
  • user-avatar
    Login

    Hourly Weather Bukowina Tatrzanska

    Today, 29 March, Sunday

    Time Temperature Precipitation Wind Pressure Humidity
    00:00 +3°C° 0 mm 1 mps 681 mmHg 87%
    01:00 +3°C° 0 mm 1 mps 681 mmHg 87%
    02:00 +3°C° 0 mm 1 mps 681 mmHg 88%
    03:00 +3°C° 0 mm 1 mps 680 mmHg 89%
    04:00 +3°C° 0 mm 1 mps 680 mmHg 89%
    05:00 +3°C° 0 mm 1 mps 680 mmHg 88%
    06:00 +4°C° 0 mm 1 mps 680 mmHg 87%
    07:00 +5°C° 0 mm 1 mps 681 mmHg 86%
    08:00 +6°C° 0.2 mm 1 mps 681 mmHg 82%
    09:00 +6°C° 0.2 mm 2 mps 681 mmHg 77%
    10:00 +7°C° 0.2 mm 2 mps 682 mmHg 72%
    11:00 +7°C° 0.3 mm 2 mps 682 mmHg 72%
    12:00 +7°C° 0.3 mm 3 mps 681 mmHg 71%
    13:00 +8°C° 0.3 mm 3 mps 681 mmHg 71%
    14:00 +7°C° 0.2 mm 3 mps 681 mmHg 74%
    15:00 +5°C° 0.2 mm 4 mps 681 mmHg 78%
    16:00 +4°C° 0.2 mm 4 mps 681 mmHg 81%
    17:00 +3°C° 0.1 mm 4 mps 681 mmHg 84%
    18:00 +2°C° 0.1 mm 3 mps 681 mmHg 88%
    19:00 +1°C° 0.1 mm 3 mps 681 mmHg 91%
    20:00 0°C° 0.2 mm 3 mps 681 mmHg 93%
    21:00 0°C° 0.2 mm 3 mps 682 mmHg 94%
    22:00 -1°C° 0.2 mm 3 mps 682 mmHg 95%
    23:00 -1°C° 0.4 mm 3 mps 682 mmHg 95%

    Tomorrow, 30 March, Monday

    Time Temperature Precipitation Wind Pressure Humidity
    00:00 -2°C° 0.4 mm 3 mps 682 mmHg 95%
    01:00 -4°C° 0.4 mm 3 mps 682 mmHg 95%
    02:00 -4°C° 0.3 mm 3 mps 683 mmHg 94%
    03:00 -5°C° 0.3 mm 3 mps 683 mmHg 93%
    04:00 -5°C° 0.3 mm 3 mps 683 mmHg 91%
    05:00 -6°C° 0.2 mm 3 mps 683 mmHg 90%
    06:00 -6°C° 0.2 mm 3 mps 683 mmHg 88%
    07:00 -8°C° 0.2 mm 4 mps 684 mmHg 86%
    08:00 -7°C° 0.1 mm 4 mps 684 mmHg 81%
    09:00 -7°C° 0.1 mm 4 mps 684 mmHg 75%
    10:00 -7°C° 0.1 mm 4 mps 685 mmHg 69%
    11:00 -7°C° 0 mm 4 mps 685 mmHg 68%
    12:00 -5°C° 0 mm 4 mps 685 mmHg 66%
    13:00 -4°C° 0 mm 4 mps 685 mmHg 64%
    14:00 -5°C° 0 mm 4 mps 685 mmHg 63%
    15:00 -5°C° 0 mm 4 mps 685 mmHg 61%
    16:00 -5°C° 0 mm 4 mps 685 mmHg 59%
    17:00 -6°C° 0 mm 3 mps 685 mmHg 65%
    18:00 -6°C° 0 mm 2 mps 685 mmHg 70%
    19:00 -7°C° 0 mm 2 mps 685 mmHg 75%
    20:00 -8°C° 0 mm 2 mps 685 mmHg 74%
    21:00 -7°C° 0 mm 1 mps 686 mmHg 73%
    22:00 -7°C° 0 mm 1 mps 686 mmHg 73%
    23:00 -7°C° 0 mm 1 mps 686 mmHg 71%

    Day after tomorrow, 31 March, Tuesday

    Time Temperature Precipitation Wind Pressure Humidity
    00:00 -7°C° 0 mm 1 mps 686 mmHg 70%
    01:00 -7°C° 0 mm 1 mps 686 mmHg 69%
    02:00 -7°C° 0 mm 1 mps 686 mmHg 70%
    03:00 -7°C° 0 mm 1 mps 686 mmHg 71%
    04:00 -7°C° 0 mm 1 mps 686 mmHg 72%
    05:00 -6°C° 0 mm 1 mps 687 mmHg 72%
    06:00 -6°C° 0 mm 1 mps 687 mmHg 72%
    07:00 -6°C° 0 mm 2 mps 687 mmHg 72%
    08:00 -5°C° 0.1 mm 2 mps 687 mmHg 67%
    09:00 -5°C° 0.1 mm 3 mps 688 mmHg 62%
    10:00 -4°C° 0.1 mm 3 mps 688 mmHg 56%
    11:00 -2°C° 0.2 mm 3 mps 688 mmHg 54%
    12:00 -2°C° 0.2 mm 3 mps 688 mmHg 52%
    13:00 -1°C° 0.2 mm 3 mps 688 mmHg 49%
    14:00 -2°C° 0.3 mm 3 mps 688 mmHg 52%
    15:00 -2°C° 0.3 mm 3 mps 687 mmHg 55%
    16:00 -2°C° 0.3 mm 3 mps 687 mmHg 57%
    17:00 -3°C° 0.2 mm 2 mps 687 mmHg 65%
    18:00 -2°C° 0.2 mm 1 mps 687 mmHg 72%
    19:00 -4°C° 0.2 mm 1 mps 687 mmHg 79%
    20:00 -4°C° 0 mm 1 mps 688 mmHg 80%
    21:00 -4°C° 0 mm 1 mps 688 mmHg 80%
    22:00 -6°C° 0 mm 1 mps 688 mmHg 81%
    23:00 -6°C° 0 mm 1 mps 687 mmHg 82%

    1 April, Wednesday

    Time Temperature Precipitation Wind Pressure Humidity
    00:00 -6°C° 0 mm 1 mps 687 mmHg 82%
    01:00 -7°C° 0 mm 1 mps 687 mmHg 83%
    02:00 -7°C° 0 mm 0 mps 687 mmHg 83%
    03:00 -7°C° 0 mm 0 mps 686 mmHg 83%
    04:00 -7°C° 0 mm 0 mps 686 mmHg 83%
    05:00 -6°C° 0 mm 0 mps 686 mmHg 79%
    06:00 -4°C° 0 mm 1 mps 686 mmHg 75%
    07:00 -3°C° 0 mm 1 mps 686 mmHg 71%
    08:00 -2°C° 0 mm 1 mps 686 mmHg 63%
    09:00 0°C° 0 mm 1 mps 686 mmHg 55%
    10:00 +1°C° 0 mm 1 mps 686 mmHg 47%
    11:00 +2°C° 0 mm 1 mps 686 mmHg 46%
    12:00 +2°C° 0 mm 1 mps 685 mmHg 45%
    13:00 +3°C° 0 mm 1 mps 685 mmHg 43%
    14:00 +2°C° 0 mm 2 mps 685 mmHg 45%
    15:00 +2°C° 0 mm 2 mps 684 mmHg 47%
    16:00 +2°C° 0 mm 2 mps 683 mmHg 48%
    17:00 +1°C° 0 mm 1 mps 683 mmHg 57%
    18:00 -1°C° 0 mm 1 mps 683 mmHg 65%
    19:00 -3°C° 0 mm 1 mps 683 mmHg 74%
    20:00 -3°C° 0 mm 1 mps 683 mmHg 74%
    21:00 -3°C° 0 mm 1 mps 683 mmHg 75%
    22:00 -3°C° 0 mm 1 mps 683 mmHg 76%
    23:00 -3°C° 0 mm 1 mps 682 mmHg 76%

    2 April, Thursday

    Time Temperature Precipitation Wind Pressure Humidity
    00:00 -3°C° 0 mm 1 mps 682 mmHg 75%
    01:00 -3°C° 0 mm 1 mps 682 mmHg 75%
    02:00 -3°C° 0 mm 1 mps 682 mmHg 75%
    03:00 -3°C° 0 mm 1 mps 681 mmHg 75%
    04:00 -4°C° 0 mm 1 mps 681 mmHg 75%
    05:00 -2°C° 0 mm 1 mps 682 mmHg 72%
    06:00 -1°C° 0 mm 1 mps 682 mmHg 69%
    07:00 0°C° 0 mm 1 mps 682 mmHg 66%
    08:00 -1°C° 0 mm 2 mps 682 mmHg 63%
    09:00 +2°C° 0 mm 2 mps 682 mmHg 61%
    10:00 +4°C° 0 mm 2 mps 683 mmHg 58%
    11:00 +4°C° 0 mm 2 mps 683 mmHg 60%
    12:00 +4°C° 0 mm 2 mps 683 mmHg 61%
    13:00 +5°C° 0 mm 2 mps 682 mmHg 62%
    14:00 +4°C° 0.1 mm 2 mps 682 mmHg 65%
    15:00 +4°C° 0.1 mm 2 mps 682 mmHg 69%
    16:00 +4°C° 0.1 mm 2 mps 682 mmHg 72%
    17:00 +3°C° 0.1 mm 1 mps 681 mmHg 78%
    18:00 +2°C° 0.1 mm 1 mps 681 mmHg 85%
    19:00 0°C° 0.1 mm 1 mps 681 mmHg 92%
    20:00 0°C° 0 mm 1 mps 681 mmHg 93%
    21:00 0°C° 0 mm 1 mps 681 mmHg 94%
    22:00 0°C° 0 mm 1 mps 682 mmHg 95%
    23:00 0°C° 0.1 mm 1 mps 682 mmHg 95%

    3 April, Friday

    Time Temperature Precipitation Wind Pressure Humidity
    00:00 -1°C° 0.1 mm 1 mps 682 mmHg 95%
    01:00 -1°C° 0.1 mm 1 mps 682 mmHg 95%
    02:00 -1°C° 0 mm 1 mps 681 mmHg 95%
    03:00 -1°C° 0 mm 1 mps 681 mmHg 94%
    04:00 -2°C° 0 mm 1 mps 681 mmHg 94%
    05:00 -1°C° 0 mm 1 mps 681 mmHg 90%
    06:00 0°C° 0 mm 1 mps 682 mmHg 85%
    07:00 +1°C° 0 mm 1 mps 682 mmHg 81%
    08:00 +3°C° 0 mm 1 mps 682 mmHg 74%
    09:00 +4°C° 0 mm 2 mps 682 mmHg 67%
    10:00 +5°C° 0 mm 2 mps 682 mmHg 60%
    11:00 +6°C° 0 mm 2 mps 682 mmHg 59%
    12:00 +6°C° 0 mm 2 mps 682 mmHg 58%
    13:00 +7°C° 0 mm 3 mps 681 mmHg 58%
    14:00 +5°C° 0 mm 3 mps 681 mmHg 59%
    15:00 +5°C° 0 mm 3 mps 680 mmHg 61%
    16:00 +5°C° 0 mm 3 mps 680 mmHg 62%
    17:00 +4°C° 0 mm 2 mps 680 mmHg 70%
    18:00 +2°C° 0 mm 2 mps 680 mmHg 77%
    19:00 +2°C° 0 mm 1 mps 679 mmHg 84%
    20:00 +1°C° 0 mm 1 mps 680 mmHg 84%
    21:00 +1°C° 0 mm 1 mps 680 mmHg 85%
    22:00 +1°C° 0 mm 1 mps 680 mmHg 85%
    23:00 +1°C° 0 mm 1 mps 681 mmHg 87%
    Show more